QPF
0.00 0.00 0.00 0.00 0.00 0.00 0.00 0.00 0.00 0.00 0.00 0.00 0.00 0.00 0.00 0.00 0.00 0.00 0.00 0.00 0.00 0.00 0.00 0.00 0.00 0.00 0.00 0.00 0.00 0.00 0.00 0.00 0.00
0.00 0.00 0.00 0.00 0.00 0.00 0.00 0.00 0.00 0.00 0.00 0.00 0.00 0.00 0.00 0.00 0.00 0.00 0.00 0.00 0.00 0.00 0.00 0.00 0.00 0.00 0.00 0.00 0.00 0.00 0.00 0.00 0.00
0.00 0.00 0.00 0.00 0.00 0.00 0.00 0.00 0.00 0.00 0.00 0.00 0.00 0.00 0.00 0.00 0.00 0.00 0.00 0.00 0.00 0.00 0.00 0.00 0.00 0.00 0.00 0.00 0.00 0.00 0.00 0.00 0.00
0.00 0.00 0.00 0.00 0.00 0.00 0.00 0.00 0.00 0.00 0.00 0.00 0.00 0.00 0.00 0.00 0.00 0.00 0.00 0.00 0.00 0.00 0.00 0.03 0.02 0.01 0.01 0.00 0.00 0.00 0.00 0.00 0.00
0.00 0.00 0.00 0.00 0.00 0.00 0.00 0.00 0.00 0.00 0.00 0.00 0.00 0.00 0.00 0.00 0.00 0.00 0.00 0.00 0.00 0.00 0.04 0.03 0.04 0.06 0.09 0.08 0.07 0.05 0.02 0.00 0.00
0.00 0.00 0.00 0.00 0.00 0.00 0.00 0.00 0.00 0.00 0.00 0.00 0.00 0.00 0.00 0.00 0.00 0.00 0.00 0.00 0.00 0.00 0.00 0.00 0.00 0.00 0.01 0.02 0.04 0.06 0.07 0.07 0.05
0.00 0.00 0.00 0.00 0.00 0.00 0.00 0.00 0.00 0.00 0.00 0.00 0.00 0.00 0.00 0.00 0.00 0.00 0.00 0.00 0.00 0.00 0.00 0.00 0.00 0.00 0.00 0.00 0.00 0.00 0.01 0.03 0.04
0.00 0.00 0.00 0.00 0.00 0.00 0.00 0.00 0.00 0.00 0.00 0.00 0.00 0.00 0.00 0.00 0.00 0.00 0.00 0.00 0.00 0.00 0.00 0.00 0.00 0.00 0.00 0.00 0.00 0.00 0.00 0.00 0.00
0.00 0.00 0.00 0.00 0.00 0.00 0.00 0.00 0.00 0.00 0.00 0.00 0.00 0.00 0.00 0.00 0.00 0.00 0.00 0.00 0.00 0.00 0.00 0.00 0.00 0.00 0.00 0.00 0.00 0.00 0.00 0.00 0.00
0.00 0.00 0.00 0.00 0.00 0.00 0.00 0.00 0.00 0.00 0.00 0.00 0.00 0.00 0.00 0.00 0.00 0.00 0.00 0.00 0.00 0.00 0.00 0.00 0.00 0.00 0.00 0.00 0.00 0.00 0.00 0.00 0.00
0.00 0.00 0.00 0.00 0.00 0.00 0.00 0.00 0.00 0.00 0.00 0.00 0.00 0.00 0.00 0.00 0.00 0.00 0.00 0.00 0.00 0.00 0.00 0.00 0.00 0.00 0.00 0.00 0.00 0.00 0.00 0.00 0.00
0.00 0.00 0.00 0.00 0.00 0.00 0.00 0.00 0.00 0.00 0.00 0.00 0.00 0.00 0.00 0.00 0.00 0.00 0.00 0.00 0.00 0.00 0.00 0.00 0.00 0.00 0.00 0.00 0.00 0.00 0.00 0.00 0.00
0.00 0.00 0.00 0.00 0.00 0.00 0.00 0.00 0.00 0.00 0.00 0.00 0.00 0.00 0.00 0.00 0.00 0.00 0.00 0.00 0.00 0.00 0.00 0.00 0.00 0.00 0.00 0.00 0.00 0.00 0.00 0.00 0.00
0.00 0.00 0.00 0.00 0.00 0.00 0.00 0.00 0.00 0.00 0.00 0.00 0.00 0.00 0.00 0.00 0.00 0.00 0.00 0.00 0.00 0.00 0.00 0.00 0.00 0.00 0.00 0.00 0.00 0.00 0.00 0.00 0.00
0.00 0.00 0.00 0.00 0.00 0.00 0.00 0.00 0.00 0.00 0.00 0.00 0.00 0.00 0.00 0.00 0.00 0.00 0.00 0.00 0.00 0.00 0.00 0.00 0.00 0.00 0.00 0.00 0.00 0.00 0.00 0.00 0.00
0.00 0.00 0.00 0.00 0.00 0.00 0.00 0.00 0.00 0.00 0.00 0.00 0.00 0.00 0.00 0.00 0.00 0.00 0.00 0.00 0.00 0.00 0.00 0.00 0.00 0.00 0.00 0.00 0.00 0.00 0.00 0.00 0.00
0.00 0.00 0.00 0.00 0.00 0.00 0.00 0.00 0.00 0.00 0.00 0.00 0.00 0.00 0.00 0.00 0.00 0.00 0.00 0.00 0.00 0.00 0.00 0.00 0.00 0.00 0.00 0.00 0.00 0.00 0.00 0.00 0.00
0.00 0.00 0.00 0.00 0.00 0.00 0.00 0.00 0.00 0.00 0.00 0.00 0.00 0.00 0.00 0.00 0.00 0.00 0.00 0.00 0.00 0.00 0.00 0.00 0.00 0.00 0.00 0.00 0.00 0.00 0.00 0.00 0.00
0.00 0.00 0.00 0.00 0.00 0.00 0.00 0.00 0.00 0.00 0.00 0.00 0.00 0.00 0.00 0.00 0.00 0.00 0.00 0.00 0.00 0.00 0.00 0.00 0.00 0.00 0.00 0.00 0.00 0.00 0.00 0.00 0.00
0.00 0.00 0.00 0.00 0.00 0.00 0.00 0.00 0.00 0.00 0.00 0.00 0.00 0.00 0.00 0.00 0.00 0.00 0.00 0.00 0.00 0.00 0.00 0.00 0.00 0.00 0.00 0.00 0.00 0.00 0.00 0.00 0.00
MSLP
1015.81 1016.07 1016.24 1016.37 1016.39 1016.26 1016.35 1016.25 1016.28 1016.34 1016.39 1016.30 1016.35 1016.28 1016.25 1016.39 1015.73 1015.64 1015.54 1015.62 1015.92 1015.79 1015.60 1015.51 1015.40 1015.22 1015.07 1015.08 1015.04 1015.03 1014.99 1015.00 1014.99
1015.86 1016.06 1016.16 1016.25 1016.27 1016.31 1016.32 1016.41 1016.42 1016.40 1016.42 1016.29 1016.32 1016.38 1016.42 1015.95 1015.41 1015.42 1015.39 1015.40 1015.91 1015.67 1015.43 1015.35 1015.22 1015.08 1014.96 1014.87 1014.69 1014.73 1014.74 1014.68 1014.68
1015.86 1016.04 1016.18 1016.22 1016.22 1016.31 1016.40 1016.47 1016.44 1016.36 1016.39 1016.41 1016.39 1016.51 1016.51 1015.78 1015.50 1015.46 1015.36 1015.63 1015.84 1015.55 1015.22 1015.06 1015.06 1014.99 1014.82 1014.65 1014.50 1014.39 1014.40 1014.39 1014.37
1015.70 1016.03 1016.11 1016.24 1016.32 1016.32 1016.40 1016.33 1016.41 1016.31 1016.37 1016.34 1016.47 1016.58 1016.47 1015.90 1015.48 1015.49 1015.13 1015.74 1015.77 1015.39 1015.04 1014.85 1014.80 1014.68 1014.53 1014.41 1014.30 1014.17 1014.06 1014.11 1014.16
1015.71 1015.93 1016.06 1016.25 1016.40 1016.42 1016.35 1016.29 1016.35 1016.36 1016.49 1016.53 1016.47 1016.50 1016.29 1015.35 1015.47 1015.28 1015.59 1015.77 1015.41 1015.15 1015.00 1014.75 1014.70 1014.61 1014.49 1014.31 1014.10 1013.95 1013.85 1013.80 1013.79
1015.56 1015.99 1016.21 1016.35 1016.42 1016.46 1016.47 1016.38 1016.29 1016.43 1016.43 1016.58 1016.58 1016.37 1015.65 1015.54 1015.50 1015.40 1016.18 1015.85 1015.38 1015.17 1015.00 1014.91 1014.86 1014.81 1014.68 1014.43 1014.25 1014.08 1013.92 1013.80 1013.67
1015.33 1015.92 1016.33 1016.32 1016.44 1016.35 1016.55 1016.58 1016.43 1016.28 1015.65 1015.81 1016.32 1015.85 1015.85 1015.76 1015.77 1015.83 1016.38 1015.95 1015.58 1015.36 1015.08 1015.15 1015.13 1015.09 1015.00 1014.86 1014.66 1014.46 1014.26 1014.09 1013.96
1015.32 1015.31 1015.56 1015.59 1016.21 1015.68 1016.03 1016.07 1015.91 1016.08 1015.91 1015.93 1016.03 1016.08 1016.04 1015.93 1015.93 1016.47 1016.58 1016.12 1015.76 1015.64 1015.42 1015.40 1015.47 1015.48 1015.40 1015.25 1015.10 1014.97 1014.77 1014.57 1014.37
1015.07 1015.07 1015.36 1015.58 1015.53 1015.64 1015.84 1015.87 1016.25 1016.28 1016.30 1016.19 1016.13 1016.27 1016.25 1016.34 1016.27 1016.65 1017.00 1016.44 1015.89 1016.03 1015.84 1015.88 1015.95 1015.88 1015.70 1015.58 1015.48 1015.28 1015.07 1014.85 1014.66
1014.91 1015.16 1015.28 1015.46 1015.64 1015.76 1016.03 1016.09 1016.42 1016.50 1016.36 1016.31 1016.43 1016.52 1016.46 1016.52 1016.44 1016.50 1017.44 1016.81 1016.32 1016.52 1016.56 1016.41 1016.39 1016.33 1016.16 1015.91 1015.73 1015.51 1015.22 1015.03 1014.84
1014.63 1015.06 1015.55 1015.80 1016.22 1016.63 1016.70 1016.59 1016.70 1016.75 1016.55 1016.40 1016.48 1016.39 1016.49 1016.57 1016.68 1016.79 1017.30 1017.37 1017.00 1017.07 1017.02 1016.95 1016.81 1016.64 1016.42 1016.17 1015.89 1015.69 1015.53 1015.33 1015.06
1014.79 1015.66 1016.11 1016.18 1016.50 1016.65 1016.57 1016.80 1016.95 1016.88 1016.80 1016.49 1016.58 1016.48 1016.53 1016.62 1016.69 1016.98 1017.10 1017.40 1017.54 1017.54 1017.48 1017.33 1017.18 1016.97 1016.66 1016.34 1016.01 1015.77 1015.62 1015.47 1015.09
1015.53 1016.04 1016.66 1016.79 1016.71 1016.82 1016.85 1017.07 1017.10 1017.17 1016.91 1016.61 1016.52 1016.65 1016.69 1016.78 1016.68 1017.09 1017.30 1017.44 1017.17 1017.59 1017.86 1017.76 1017.55 1017.28 1016.91 1016.49 1016.15 1015.89 1015.78 1015.47 1015.03
1015.43 1016.06 1016.76 1016.72 1016.98 1017.17 1017.22 1017.42 1017.57 1017.33 1017.05 1016.82 1016.47 1016.79 1016.78 1016.94 1016.94 1017.16 1017.61 1017.76 1017.61 1017.54 1017.63 1017.69 1017.45 1017.33 1017.04 1016.65 1016.33 1016.04 1015.76 1015.40 1015.08
1015.73 1016.64 1016.69 1016.87 1017.18 1017.44 1017.67 1017.65 1017.72 1017.66 1017.39 1016.94 1016.50 1016.83 1016.97 1017.07 1017.05 1017.35 1017.59 1017.65 1017.78 1017.68 1017.53 1017.28 1016.92 1016.94 1016.86 1016.62 1016.34 1016.03 1015.62 1015.33 1014.90
1016.07 1016.82 1017.19 1017.11 1017.48 1017.73 1017.80 1017.86 1017.68 1017.82 1017.80 1017.00 1016.48 1016.71 1017.02 1017.04 1017.18 1017.41 1017.36 1017.58 1017.69 1017.55 1017.34 1017.17 1016.88 1016.49 1016.46 1016.31 1016.22 1015.89 1015.58 1015.20 1014.74
1016.19 1016.39 1017.15 1017.28 1017.85 1018.13 1018.10 1017.91 1017.85 1018.24 1018.39 1017.92 1017.51 1016.67 1016.65 1016.86 1017.11 1017.24 1017.40 1017.35 1017.45 1017.33 1017.28 1017.19 1016.94 1016.63 1016.28 1016.04 1016.11 1015.86 1015.58 1015.17 1014.62
1016.51 1017.10 1017.27 1017.75 1017.96 1018.44 1018.35 1018.24 1018.32 1018.45 1018.70 1018.77 1018.36 1017.56 1017.15 1017.40 1016.84 1017.08 1017.20 1017.27 1017.45 1017.52 1017.39 1017.19 1016.86 1016.57 1016.20 1015.96 1015.69 1015.66 1015.66 1015.12 1014.33
1017.02 1017.30 1018.03 1018.03 1018.07 1018.43 1018.49 1018.61 1018.81 1018.81 1018.82 1019.12 1019.16 1019.21 1018.98 1018.21 1017.19 1016.94 1017.00 1017.47 1017.46 1017.37 1017.27 1016.99 1016.63 1016.33 1015.97 1015.81 1015.67 1015.56 1015.35 1014.79 1014.08
1017.37 1017.61 1018.57 1018.14 1018.42 1018.60 1018.78 1018.93 1019.25 1019.32 1019.42 1019.41 1019.30 1019.33 1019.16 1019.20 1018.84 1017.38 1016.82 1017.10 1017.00 1016.94 1016.95 1016.78 1016.39 1016.00 1015.67 1015.36 1015.16 1015.16 1015.01 1014.43 1013.72
Thickness
5707 5704 5703 5701 5701 5702 5700 5701 5700 5699 5698 5699 5697 5698 5698 5695 5697 5698 5698 5697 5694 5695 5695 5694 5694 5695 5696 5695 5694 5694 5695 5695 5694
5703 5701 5700 5699 5699 5698 5698 5696 5696 5696 5694 5695 5693 5692 5691 5693 5695 5694 5694 5693 5689 5690 5690 5690 5690 5691 5691 5691 5692 5691 5691 5691 5691
5699 5698 5697 5696 5696 5695 5693 5692 5692 5692 5690 5689 5688 5685 5684 5689 5689 5689 5689 5687 5684 5685 5687 5687 5686 5685 5686 5687 5688 5688 5687 5687 5687
5697 5694 5693 5692 5691 5691 5689 5690 5687 5688 5686 5685 5682 5679 5679 5682 5683 5682 5685 5681 5677 5679 5682 5682 5681 5681 5682 5682 5683 5683 5683 5682 5681
5693 5691 5689 5688 5686 5685 5686 5686 5684 5682 5680 5679 5678 5676 5676 5680 5677 5678 5675 5674 5674 5675 5677 5678 5676 5676 5676 5677 5678 5678 5677 5677 5676
5689 5687 5685 5684 5682 5681 5680 5680 5681 5678 5677 5673 5672 5672 5674 5673 5672 5672 5666 5667 5669 5670 5671 5670 5669 5668 5667 5669 5669 5670 5669 5669 5668
5686 5682 5680 5680 5678 5679 5675 5674 5675 5674 5676 5672 5667 5667 5665 5664 5664 5662 5659 5661 5662 5662 5665 5662 5661 5658 5658 5658 5660 5659 5659 5659 5659
5680 5681 5680 5679 5675 5677 5673 5672 5671 5668 5668 5666 5662 5659 5656 5656 5655 5651 5650 5653 5654 5653 5655 5653 5650 5648 5647 5648 5648 5648 5647 5648 5648
5677 5678 5676 5674 5673 5672 5669 5667 5663 5661 5659 5658 5656 5652 5651 5647 5647 5644 5639 5643 5647 5643 5644 5642 5639 5637 5636 5636 5636 5636 5636 5636 5636
5671 5671 5671 5669 5667 5665 5662 5660 5656 5654 5653 5652 5648 5645 5644 5641 5641 5639 5630 5634 5637 5632 5630 5629 5627 5625 5624 5624 5623 5623 5624 5623 5623
5668 5666 5662 5660 5657 5654 5651 5650 5648 5646 5645 5644 5641 5640 5637 5635 5633 5628 5624 5622 5624 5620 5617 5616 5614 5613 5612 5612 5611 5611 5611 5610 5611
5661 5656 5652 5650 5648 5646 5645 5642 5639 5638 5636 5637 5633 5633 5631 5627 5625 5619 5616 5612 5611 5608 5605 5603 5602 5600 5600 5600 5601 5600 5599 5598 5600
5651 5647 5642 5640 5639 5637 5636 5633 5632 5629 5629 5629 5627 5624 5622 5619 5618 5611 5605 5602 5603 5597 5593 5591 5590 5589 5588 5589 5589 5589 5587 5587 5590
5644 5641 5635 5634 5631 5628 5627 5624 5621 5621 5621 5621 5622 5616 5613 5609 5606 5601 5594 5591 5589 5586 5584 5580 5579 5578 5577 5577 5576 5575 5575 5575 5576
5637 5631 5629 5626 5623 5620 5616 5615 5613 5611 5611 5612 5614 5607 5603 5598 5596 5589 5583 5580 5576 5574 5572 5571 5571 5568 5565 5564 5563 5562 5562 5561 5562
5629 5623 5619 5617 5614 5610 5609 5607 5607 5603 5600 5604 5606 5600 5593 5590 5585 5578 5574 5570 5566 5563 5561 5559 5557 5557 5554 5551 5549 5548 5547 5547 5547
5620 5618 5611 5609 5602 5600 5599 5599 5598 5592 5587 5588 5588 5593 5590 5582 5575 5568 5563 5559 5554 5551 5547 5544 5542 5541 5540 5538 5534 5532 5530 5530 5531
5610 5605 5602 5598 5595 5589 5589 5588 5585 5582 5576 5572 5574 5581 5581 5569 5569 5561 5555 5549 5542 5536 5532 5528 5526 5524 5523 5521 5520 5516 5512 5512 5514
5599 5596 5587 5587 5586 5582 5580 5576 5572 5569 5567 5561 5556 5550 5548 5553 5560 5557 5549 5538 5532 5526 5521 5517 5514 5511 5509 5505 5502 5498 5495 5495 5495
5588 5585 5574 5578 5575 5573 5569 5565 5559 5555 5552 5548 5545 5540 5537 5530 5528 5537 5538 5529 5524 5519 5512 5506 5502 5498 5496 5493 5490 5484 5480 5478 5477